Weather History for Avalon, CA

Change the Weather History Date:

Sunday, December 29, 2013

  Actual Average Record
Temperature  
Mean Temperature 64 °F -  
Max Temperature 69 °F 56 °F 73 °F (2000)
Min Temperature 60 °F 48 °F 43 °F (2010)
Growing Degree Days 14 (Base 50)    
Moisture  
Dew Point 6 °F    
Average Humidity 10    
Maximum Humidity 15    
Minimum Humidity 7    
Precipitation  
Precipitation 0.00 in - - ()
Sea Level Pressure  
Sea Level Pressure 30.05 in    
Wind  
Wind Speed 6 mph (ENE)    
Max Wind Speed 13 mph    
Max Gust Speed 18 mph    
Visibility 10 miles    
Events      
Averages and records for this station are not official NWS values.
T = Trace of Precipitation, MM = Missing Value Source: NWS Daily Summary

Daily Weather History Graph

Daily Weather History Graph

Search for Another Location

Airport:

Trip Planner

Search our weather history database for the weather conditions in past years. The results will help you decide how hot, cold, wet, or windy it might be!

Date:

Astronomy

Dec. 29, 2013 Rise Set
Actual Time 6:56 AM PST 4:54 PM PST
Civil Twilight 6:29 AM PST 5:22 PM PST
Nautical Twilight 5:58 AM PST 5:53 PM PST
Astronomical Twilight 5:28 AM PST 6:23 PM PST
Moon 3:49 AM PST (12/29) 2:33 PM PST (12/29)
Length of Visible Light 10h 52m
Length of Day
9h 58m
Waning Crescent, 10% of the Moon is Illuminated
Dec 29
Waning Crescent
Jan 1
New
Jan 7
First Quarter
Jan 15
Full
Jan 23
Last Quarter

Hourly Weather History & Observations

Time (PST) Temp. Dew Point Humidity Pressure Visibility Wind Dir Wind Speed Gust Speed Precip Events Conditions
12:51 AM 60.1 °F 1.9 °F 10% 29.97 in 10.0 mi SE 5.8 mph - N/A   Clear
1:51 AM 63.0 °F -2.0 °F 7% 29.97 in 10.0 mi East 3.5 mph - N/A   Clear
2:51 AM 63.0 °F 1.9 °F 9% 29.98 in 10.0 mi ENE 5.8 mph - N/A   Clear
3:51 AM 62.1 °F 3.9 °F 10% 29.98 in 10.0 mi ENE 5.8 mph - N/A   Clear
4:51 AM 62.1 °F 9.0 °F 12% 29.99 in 10.0 mi ENE 11.5 mph - N/A   Clear
5:51 AM 61.0 °F 9.0 °F 13% 30.01 in 10.0 mi ENE 8.1 mph - N/A   Clear
6:51 AM 61.0 °F 8.1 °F 12% 30.04 in 10.0 mi ENE 6.9 mph - N/A   Clear
7:51 AM 62.1 °F 10.0 °F 13% 30.05 in 10.0 mi ENE 11.5 mph - N/A   Clear
8:51 AM 63.0 °F 14.0 °F 15% 30.07 in 10.0 mi ENE 8.1 mph - N/A   Clear
9:51 AM 64.9 °F 15.1 °F 15% 30.08 in 10.0 mi East 10.4 mph - N/A   Clear
10:51 AM 66.0 °F 10.9 °F 12% 30.07 in 10.0 mi East 12.7 mph - N/A   Clear
11:51 AM 66.9 °F 10.9 °F 11% 30.06 in 10.0 mi East 12.7 mph 18.4 mph N/A   Clear
12:51 PM 68.0 °F 10.0 °F 11% 30.05 in 10.0 mi ENE 8.1 mph - N/A   Clear
1:51 PM 69.1 °F 12.9 °F 11% 30.03 in 10.0 mi East 5.8 mph - N/A   Clear
2:51 PM 68.0 °F 7.0 °F 9% 30.04 in 10.0 mi East 8.1 mph - N/A   Clear
3:51 PM 68.0 °F 5.0 °F 8% 30.04 in 10.0 mi NNE 4.6 mph - N/A   Clear
4:51 PM 64.9 °F 5.0 °F 9% 30.06 in 10.0 mi NW 4.6 mph - N/A   Clear
5:51 PM 64.0 °F 5.0 °F 10% 30.08 in 10.0 mi NW 5.8 mph - N/A   Clear
6:51 PM 66.0 °F 1.9 °F 8% 30.09 in 10.0 mi WNW 3.5 mph - N/A   Clear
7:51 PM 64.9 °F 5.0 °F 9% 30.10 in 10.0 mi WNW 4.6 mph - N/A   Clear
8:51 PM 64.9 °F 3.9 °F 9% 30.11 in 10.0 mi Calm Calm - N/A   Clear
9:51 PM 64.9 °F 3.0 °F 9% 30.12 in 10.0 mi SSE 3.5 mph - N/A   Clear
10:51 PM 64.9 °F 3.0 °F 9% 30.12 in 10.0 mi Calm Calm - N/A   Clear
11:51 PM 64.0 °F 1.0 °F 8% 30.12 in 10.0 mi Calm Calm - N/A   Clear